EW2137 Weather Reports


Display with metric or nautical units.
time (UTC)temp
F
wind
direction
speed
MPH
gust
MPH
rain 1hr
in
rain 24hr
in
rain mn
in
humidity
%
barometer
mb
20260506221537 72 246 29.0 37.0 0.00 0.00 0.00 38 1011.8
20260506220038 73 232 25.0 33.0 0.00 0.00 0.00 39 1012.0
20260506214534 72 221 26.0 34.0 0.00 0.00 0.00 42 1011.9
20260506213032 72 245 24.0 35.0 0.00 0.00 0.00 44 1011.9
20260506211532 72 248 24.0 38.0 0.00 0.00 0.00 45 1011.8
20260506210032 71 239 29.0 38.0 0.00 0.00 0.00 46 1011.9
20260506204529 71 238 23.0 33.0 0.00 0.00 0.00 47 1012.0
20260506203030 70 248 25.0 36.0 0.00 0.00 0.00 49 1011.9
20260506201540 69 253 28.0 38.0 0.00 0.00 0.00 50 1011.4
20260506200028 69 234 29.0 38.0 0.00 0.00 0.00 52 1011.7
20260506194527 69 246 21.0 39.0 0.00 0.00 0.00 52 1011.9
20260506193026 69 249 28.0 39.0 0.00 0.00 0.00 49 1011.9
20260506191524 69 233 29.0 36.0 0.00 0.00 0.00 50 1012.2
20260506190023 69 232 23.0 32.0 0.00 0.00 0.00 51 1012.3
20260506184520 68 235 21.0 30.0 0.00 0.00 0.00 54 1012.4
20260506183018 67 234 23.0 34.0 0.00 0.00 0.00 57 1012.6
20260506181518 66 232 27.0 37.0 0.00 0.00 0.00 55 1012.3
20260506180016 66 240 21.0 31.0 0.00 0.00 0.00 59 1012.6
20260506174513 65 225 24.0 31.0 0.00 0.00 0.00 58 1012.7
20260506173010 64 236 24.0 34.0 0.00 0.00 0.00 60 1012.4
20260506171507 64 246 27.0 36.0 0.00 0.00 0.00 61 1012.3
20260506170005 63 253 24.0 34.0 0.00 0.00 0.00 63 1012.4
20260506164507 62 236 29.0 37.0 0.00 0.00 0.00 64 1012.4
20260506163005 62 252 27.0 36.0 0.00 0.00 0.00 65 1012.5
20260506161500 62 239 25.0 38.0 0.00 0.00 0.00 66 1012.8
20260506154602 60 264 23.0 35.0 0.00 0.00 0.00 67 1012.7
20260506153055 60 242 27.0 32.0 0.00 0.00 0.00 69 1012.4
20260506151553 59 231 28.0 36.0 0.00 0.00 0.00 70 1012.6
20260506150052 58 237 28.0 38.0 0.00 0.00 0.00 71 1012.4
20260506144548 58 240 26.0 35.0 0.00 0.00 0.00 72 1012.4
20260506143047 57 229 25.0 34.0 0.00 0.00 0.00 74 1012.3
20260506141550 57 230 23.0 34.0 0.00 0.00 0.00 75 1012.4
20260506140052 56 244 25.0 34.0 0.00 0.00 0.00 76 1012.2
20260506134540 56 248 22.0 32.0 0.00 0.00 0.00 78 1012.2
20260506133037 55 228 20.0 29.0 0.00 0.00 0.00 80 1011.9
20260506131536 53 234 19.0 23.0 0.00 0.00 0.00 82 1012.0
20260506130035 53 227 17.0 24.0 0.00 0.00 0.00 82 1011.7
20260506124532 53 227 18.0 24.0 0.00 0.00 0.00 83 1011.5
20260506123032 53 238 19.0 26.0 0.00 0.00 0.00 82 1011.3
20260506121530 53 225 20.0 26.0 0.00 0.00 0.00 82 1011.3
20260506120033 54 213 22.0 30.0 0.00 0.00 0.00 82 1011.1
20260506114527 53 225 19.0 28.0 0.00 0.00 0.00 82 1010.8
20260506113027 53 221 19.0 25.0 0.00 0.00 0.00 82 1010.9
20260506111528 53 236 17.0 26.0 0.00 0.00 0.00 83 1010.8
20260506110025 53 219 19.0 24.0 0.00 0.00 0.00 82 1010.7
20260506104523 53 229 19.0 23.0 0.00 0.00 0.00 83 1010.7
20260506103023 53 221 17.0 22.0 0.00 0.00 0.00 84 1010.8
20260506101523 53 213 18.0 23.0 0.00 0.00 0.00 84 1010.7
20260506100020 53 226 18.0 23.0 0.00 0.00 0.00 84 1010.7
20260506094519 53 214 16.0 21.0 0.00 0.00 0.00 85 1010.8
20260506093028 52 226 16.0 20.0 0.00 0.00 0.00 85 1010.6
20260506091515 53 234 15.0 21.0 0.00 0.00 0.00 85 1010.5
20260506090011 53 240 15.0 21.0 0.00 0.00 0.00 84 1010.4
20260506084513 53 210 14.0 22.0 0.00 0.00 0.00 84 1010.4
20260506083008 53 219 14.0 19.0 0.00 0.00 0.00 84 1010.4
20260506081508 54 222 15.0 21.0 0.00 0.00 0.00 83 1010.3
20260506073003 54 226 16.0 21.0 0.00 0.00 0.00 82 1009.7
20260506071558 54 216 15.0 20.0 0.00 0.00 0.00 81 1009.7
20260506061601 55 215 11.0 17.0 0.00 0.00 0.00 79 1009.4
20260506044554 59 229 9.0 13.0 0.00 0.00 0.00 72 1008.9
20260506043053 60 217 10.0 14.0 0.00 0.00 0.00 70 1008.8
20260506041604 61 213 10.0 14.0 0.00 0.00 0.00 67 1008.6
20260506040053 61 218 8.0 11.0 0.00 0.00 0.00 67 1008.5
20260506034548 62 223 11.0 13.0 0.00 0.00 0.00 65 1008.3
20260506033051 64 231 10.0 13.0 0.00 0.00 0.00 61 1008.2
20260506031548 65 227 9.0 14.0 0.00 0.00 0.00 59 1008.1
20260506030047 67 227 12.0 18.0 0.00 0.00 0.00 56 1008.0
20260506024547 69 230 12.0 16.0 0.00 0.00 0.00 53 1007.9
20260506023053 70 234 12.0 17.0 0.00 0.00 0.00 50 1007.7
20260506021545 72 239 12.0 17.0 0.00 0.00 0.00 47 1007.7
20260506020114 74 246 12.0 16.0 0.00 0.00 0.00 44 1007.6
20260506014545 75 213 11.0 15.0 0.00 0.00 0.00 43 1007.5
20260506013045 76 236 9.0 14.0 0.00 0.00 0.00 42 1007.3
20260506011548 77 259 8.0 12.0 0.00 0.00 0.00 39 1007.3
20260506010044 78 266 6.0 9.0 0.00 0.00 0.00 39 1007.2
20260506004544 79 274 5.0 8.0 0.00 0.00 0.00 37 1007.3
20260506003046 79 297 3.0 6.0 0.00 0.00 0.00 33 1007.3
20260506001548 79 248 3.0 7.0 0.00 0.00 0.00 38 1007.3
20260506000055 78 285 6.0 10.0 0.00 0.00 0.00 36 1007.4
20260505234543 78 304 7.0 13.0 0.00 0.00 0.00 39 1007.6
20260505233047 78 309 6.0 11.0 0.00 0.00 0.00 37 1007.7
20260505231550 79 266 4.0 9.0 0.00 0.00 0.00 36 1007.6
20260505230046 79 180 5.0 12.0 0.00 0.00 0.00 35 1007.7
20260505224545 78 259 5.0 9.0 0.00 0.00 0.00 37 1007.8
20260505223039 78 241 2.0 7.0 0.00 0.00 0.00 35 1008.0